Retour au catalogue

THORAD DELTA 1 DEB

LostSSO
NORAD 42609·DEBRIS·🇺🇸 United States

Lancé Nov 15, 1974 depuis Vandenberg Space Force Base

Loading…

Prochains Passages (prochaines 24 heures)

TLE

PériméSource: Space-Track

Époque: Aug 27, 2024, 03:21 UTC

1 42609U 74089GA  24240.14005280  .00000524  00000-0  29498-2 0  9996
2 42609 101.2961 209.7583 0052511 324.1742  35.5822 12.67306849497634

Suivez THORAD DELTA 1 DEB en temps réel avec AllMySat

Download on the App Store